SIL146 MYNN-KFLL

Flight info

Callsign SIL146
Flight time 0h 46m
Altitude 16000
Route PEACH KYAKS3
Aircraft AT46/M-SDFGIRY/S

Departure

Time 2026-04-30 13:49
Airport Lynden Pindling International Airport (MYNN)

Arrival

Time 2026-04-30 14:36
Airport Fort Lauderdale Hollywood International Airport (KFLL)
Time Latitude Longitude Altitude Speed Heading
2026-04-30 13:18 25.05160 -77.46842 19 ft 0 kts 223°
2026-04-30 13:35 25.05156 -77.46838 19 ft 0 kts 286°
2026-04-30 13:42 25.05156 -77.46839 19 ft 0 kts 285°
2026-04-30 13:44 25.05159 -77.46856 21 ft 4 kts 282°
2026-04-30 13:45 25.05156 -77.46954 19 ft 6 kts 246°
2026-04-30 13:45 25.05137 -77.47006 20 ft 11 kts 245°
2026-04-30 13:45 25.05071 -77.47086 20 ft 14 kts 223°
2026-04-30 13:46 25.05057 -77.47169 21 ft 12 kts 313°
2026-04-30 13:46 25.05115 -77.47230 19 ft 11 kts 314°
2026-04-30 13:46 25.05169 -77.47290 21 ft 11 kts 313°
2026-04-30 13:46 25.05214 -77.47354 19 ft 10 kts 296°
2026-04-30 13:47 25.05223 -77.47394 19 ft 2 kts 271°
2026-04-30 13:47 25.05223 -77.47401 19 ft 0 kts 264°
2026-04-30 13:47 25.05211 -77.47461 21 ft 15 kts 251°
2026-04-30 13:47 25.05165 -77.47527 19 ft 8 kts 183°
2026-04-30 13:48 25.05133 -77.47507 19 ft 0 kts 136°
2026-04-30 13:49 25.05072 -77.47440 19 ft 42 kts 134°
2026-04-30 13:49 25.04695 -77.47027 21 ft 108 kts 135°
2026-04-30 13:49 25.04094 -77.46350 307 ft 131 kts 135°
2026-04-30 13:49 25.03461 -77.45609 954 ft 134 kts 136°
2026-04-30 13:50 25.02771 -77.44843 1335 ft 154 kts 136°
2026-04-30 13:50 25.01193 -77.43035 2303 ft 165 kts 129°
2026-04-30 13:50 25.00900 -77.41830 2877 ft 171 kts 79°
2026-04-30 13:51 25.01595 -77.40787 3431 ft 176 kts 29°
2026-04-30 13:51 25.02788 -77.40616 3894 ft 181 kts 353°
2026-04-30 13:51 25.04126 -77.40828 4084 ft 202 kts 350°
2026-04-30 13:51 25.05468 -77.41086 4744 ft 191 kts 349°
2026-04-30 13:52 25.06730 -77.41412 5325 ft 181 kts 334°
2026-04-30 13:52 25.07717 -77.42236 5796 ft 179 kts 319°
2026-04-30 13:52 25.08674 -77.43128 6237 ft 180 kts 320°
2026-04-30 13:52 25.09632 -77.44026 6676 ft 181 kts 319°
2026-04-30 13:53 25.10568 -77.44945 7114 ft 180 kts 317°
2026-04-30 13:53 25.11493 -77.45866 7553 ft 178 kts 317°
2026-04-30 13:53 25.12402 -77.46774 7961 ft 179 kts 317°
2026-04-30 13:53 25.13326 -77.47692 8366 ft 179 kts 317°
2026-04-30 13:54 25.14251 -77.48618 8787 ft 179 kts 317°
2026-04-30 13:54 25.15179 -77.49538 9194 ft 179 kts 317°
2026-04-30 13:54 25.16106 -77.50463 9599 ft 179 kts 317°
2026-04-30 13:54 25.17031 -77.51387 9995 ft 179 kts 317°
2026-04-30 13:55 25.17954 -77.52309 10363 ft 179 kts 317°
2026-04-30 13:55 25.18884 -77.53231 10714 ft 180 kts 317°
2026-04-30 13:55 25.19814 -77.54156 11059 ft 180 kts 317°
2026-04-30 13:55 25.20746 -77.55087 11410 ft 181 kts 317°
2026-04-30 13:56 25.21683 -77.56022 11761 ft 181 kts 317°
2026-04-30 13:56 25.22612 -77.56945 12107 ft 182 kts 317°
2026-04-30 13:56 25.23556 -77.57885 12452 ft 183 kts 317°
2026-04-30 13:56 25.24499 -77.58827 12802 ft 183 kts 317°
2026-04-30 13:57 25.25444 -77.59775 13142 ft 184 kts 316°
2026-04-30 13:57 25.26390 -77.60727 13460 ft 185 kts 316°
2026-04-30 13:57 25.27341 -77.61687 13800 ft 185 kts 316°
2026-04-30 13:57 25.28293 -77.62648 14102 ft 186 kts 316°
2026-04-30 13:58 25.29249 -77.63614 14388 ft 187 kts 316°
2026-04-30 13:58 25.31172 -77.65566 14944 ft 188 kts 316°
2026-04-30 13:58 25.32135 -77.66546 15212 ft 189 kts 316°
2026-04-30 13:59 25.33103 -77.67534 15470 ft 189 kts 316°
2026-04-30 13:59 25.34073 -77.68525 15739 ft 190 kts 316°
2026-04-30 13:59 25.35077 -77.69553 15816 ft 204 kts 316°
2026-04-30 13:59 25.36136 -77.70639 15870 ft 217 kts 316°
2026-04-30 14:00 25.37269 -77.71802 15925 ft 228 kts 316°
2026-04-30 14:00 25.39697 -77.74295 15958 ft 247 kts 316°
2026-04-30 14:00 25.40972 -77.75604 15965 ft 253 kts 316°
2026-04-30 14:01 25.42277 -77.76946 15978 ft 258 kts 316°
2026-04-30 14:01 25.43293 -77.78564 15969 ft 259 kts 294°
2026-04-30 14:01 25.43844 -77.80478 15969 ft 263 kts 285°
2026-04-30 14:01 25.44247 -77.82465 15967 ft 266 kts 284°
2026-04-30 14:02 25.44650 -77.84470 15965 ft 268 kts 284°
2026-04-30 14:02 25.45088 -77.86483 15969 ft 270 kts 285°
2026-04-30 14:02 25.45545 -77.88503 15968 ft 271 kts 285°
2026-04-30 14:02 25.45999 -77.90538 15968 ft 272 kts 285°
2026-04-30 14:03 25.46485 -77.92538 15971 ft 272 kts 287°
2026-04-30 14:03 25.46996 -77.94556 15962 ft 273 kts 287°
2026-04-30 14:03 25.47497 -77.96584 15962 ft 273 kts 287°
2026-04-30 14:03 25.47982 -77.98619 15970 ft 274 kts 286°
2026-04-30 14:04 25.48455 -78.00667 15965 ft 274 kts 285°
2026-04-30 14:04 25.48919 -78.02713 15967 ft 274 kts 286°
2026-04-30 14:04 25.49395 -78.04761 15966 ft 274 kts 286°
2026-04-30 14:04 25.49872 -78.06800 15979 ft 273 kts 286°
2026-04-30 14:05 25.50342 -78.08809 15991 ft 273 kts 286°
2026-04-30 14:05 25.50817 -78.10844 15997 ft 273 kts 286°
2026-04-30 14:05 25.51293 -78.12881 15998 ft 273 kts 286°
2026-04-30 14:05 25.51769 -78.14918 16001 ft 273 kts 286°
2026-04-30 14:06 25.52246 -78.16958 15999 ft 273 kts 286°
2026-04-30 14:06 25.53200 -78.21039 15997 ft 274 kts 286°
2026-04-30 14:07 25.54144 -78.25096 15995 ft 273 kts 286°
2026-04-30 14:07 25.54488 -78.27154 15997 ft 272 kts 276°
2026-04-30 14:07 25.54615 -78.29263 15864 ft 277 kts 276°
2026-04-30 14:08 25.55185 -78.33546 15547 ft 284 kts 285°
2026-04-30 14:08 25.55675 -78.35679 15389 ft 287 kts 286°
2026-04-30 14:08 25.56680 -78.39978 15072 ft 290 kts 285°
2026-04-30 14:09 25.57157 -78.42163 14729 ft 291 kts 285°
2026-04-30 14:09 25.57613 -78.44316 14449 ft 283 kts 285°
2026-04-30 14:09 25.58485 -78.48466 13929 ft 270 kts 285°
2026-04-30 14:10 25.58769 -78.49798 13753 ft 267 kts 285°
2026-04-30 14:10 25.59199 -78.51790 13468 ft 264 kts 285°
2026-04-30 14:10 25.59760 -78.54392 13094 ft 261 kts 285°
2026-04-30 14:10 25.60180 -78.56340 12815 ft 259 kts 285°
2026-04-30 14:11 25.60598 -78.58277 12544 ft 258 kts 285°
2026-04-30 14:11 25.60879 -78.59579 12358 ft 257 kts 285°
2026-04-30 14:11 25.61295 -78.61509 12086 ft 257 kts 285°
2026-04-30 14:11 25.61704 -78.63406 11892 ft 254 kts 285°
2026-04-30 14:12 25.62102 -78.65264 11948 ft 242 kts 285°
2026-04-30 14:12 25.62484 -78.67052 11973 ft 236 kts 285°
2026-04-30 14:12 25.62864 -78.68834 11986 ft 239 kts 285°
2026-04-30 14:12 25.63250 -78.70652 11931 ft 245 kts 285°
2026-04-30 14:13 25.63661 -78.72523 11729 ft 255 kts 285°
2026-04-30 14:13 25.64089 -78.74474 11448 ft 265 kts 285°
2026-04-30 14:13 25.64519 -78.76455 11118 ft 264 kts 285°
2026-04-30 14:13 25.64944 -78.78427 10740 ft 263 kts 285°
2026-04-30 14:14 25.65363 -78.80374 10367 ft 263 kts 285°
2026-04-30 14:14 25.65788 -78.82344 9997 ft 263 kts 285°
2026-04-30 14:14 25.66214 -78.84315 9598 ft 263 kts 284°
2026-04-30 14:14 25.66640 -78.86282 9274 ft 260 kts 284°
2026-04-30 14:15 25.67055 -78.88202 9123 ft 251 kts 284°
2026-04-30 14:15 25.67450 -78.90050 9060 ft 242 kts 284°
2026-04-30 14:15 25.67823 -78.91844 9026 ft 234 kts 284°
2026-04-30 14:15 25.68204 -78.93605 8743 ft 238 kts 284°
2026-04-30 14:16 25.68590 -78.95411 8394 ft 244 kts 284°
2026-04-30 14:16 25.68975 -78.97234 8055 ft 247 kts 284°
2026-04-30 14:16 25.69369 -78.99102 7726 ft 250 kts 283°
2026-04-30 14:16 25.69768 -79.00984 7382 ft 252 kts 283°
2026-04-30 14:17 25.70165 -79.02868 7181 ft 248 kts 283°
2026-04-30 14:17 25.70547 -79.04708 7087 ft 241 kts 283°
2026-04-30 14:17 25.70923 -79.06494 7039 ft 234 kts 283°
2026-04-30 14:17 25.71298 -79.08221 7018 ft 227 kts 283°
2026-04-30 14:18 25.71658 -79.09918 6909 ft 226 kts 283°
2026-04-30 14:18 25.72022 -79.11632 6660 ft 232 kts 283°
2026-04-30 14:18 25.72784 -79.15218 6072 ft 243 kts 282°
2026-04-30 14:19 25.73560 -79.18894 5563 ft 245 kts 283°
2026-04-30 14:19 25.73948 -79.20725 5380 ft 243 kts 282°
2026-04-30 14:19 25.74331 -79.22532 5183 ft 242 kts 282°
2026-04-30 14:20 25.74717 -79.24351 4994 ft 242 kts 283°
2026-04-30 14:20 25.75100 -79.26158 4850 ft 239 kts 282°
2026-04-30 14:20 25.75851 -79.29721 4570 ft 236 kts 282°
2026-04-30 14:21 25.76225 -79.31490 4418 ft 234 kts 282°
2026-04-30 14:21 25.76594 -79.33246 4273 ft 233 kts 282°
2026-04-30 14:21 25.77323 -79.36723 4065 ft 228 kts 282°
2026-04-30 14:22 25.77677 -79.38417 4027 ft 225 kts 282°
2026-04-30 14:22 25.78649 -79.41922 4011 ft 253 kts 290°
2026-04-30 14:22 25.79316 -79.43781 4009 ft 265 kts 290°
2026-04-30 14:23 25.80642 -79.47671 4001 ft 274 kts 289°
2026-04-30 14:23 25.81919 -79.51634 3998 ft 267 kts 288°
2026-04-30 14:24 25.83140 -79.55420 3997 ft 255 kts 288°
2026-04-30 14:24 25.83734 -79.57265 3993 ft 252 kts 288°
2026-04-30 14:25 25.84897 -79.60890 4002 ft 248 kts 288°
2026-04-30 14:25 25.86368 -79.64280 4002 ft 244 kts 309°
2026-04-30 14:26 25.88689 -79.67050 3995 ft 245 kts 313°
2026-04-30 14:26 25.89849 -79.68440 3995 ft 245 kts 311°
2026-04-30 14:26 25.92089 -79.71259 4001 ft 245 kts 310°
2026-04-30 14:27 25.93222 -79.72673 3996 ft 245 kts 310°
2026-04-30 14:27 25.94349 -79.74097 4002 ft 245 kts 309°
2026-04-30 14:27 25.95417 -79.75517 3994 ft 236 kts 308°
2026-04-30 14:28 25.97476 -79.78255 3867 ft 230 kts 309°
2026-04-30 14:28 25.98500 -79.79584 3884 ft 223 kts 309°
2026-04-30 14:28 25.99510 -79.80878 3883 ft 219 kts 309°
2026-04-30 14:28 26.00501 -79.82148 3892 ft 216 kts 309°
2026-04-30 14:29 26.02445 -79.84645 3900 ft 212 kts 309°
2026-04-30 14:29 26.04363 -79.87104 3900 ft 210 kts 309°
2026-04-30 14:30 26.07192 -79.90784 3894 ft 204 kts 301°
2026-04-30 14:31 26.07592 -79.93834 3511 ft 212 kts 265°
2026-04-30 14:31 26.07562 -79.96891 2953 ft 186 kts 271°
2026-04-30 14:31 26.07592 -79.98275 2729 ft 173 kts 269°
2026-04-30 14:32 26.07593 -80.00840 2287 ft 161 kts 269°
2026-04-30 14:32 26.07606 -80.02084 2070 ft 161 kts 270°
2026-04-30 14:32 26.07621 -80.03328 1872 ft 161 kts 270°
2026-04-30 14:33 26.07628 -80.04573 1659 ft 161 kts 269°
2026-04-30 14:33 26.07639 -80.06896 1273 ft 133 kts 269°
2026-04-30 14:33 26.07645 -80.07849 1108 ft 114 kts 268°
2026-04-30 14:34 26.07651 -80.08719 946 ft 113 kts 268°
2026-04-30 14:34 26.07652 -80.09576 816 ft 110 kts 268°
2026-04-30 14:34 26.07657 -80.10424 693 ft 109 kts 268°
2026-04-30 14:34 26.07661 -80.11259 565 ft 109 kts 269°
2026-04-30 14:35 26.07676 -80.13100 229 ft 125 kts 271°
2026-04-30 14:35 26.07681 -80.14018 52 ft 109 kts 270°
2026-04-30 14:35 26.07682 -80.14753 15 ft 72 kts 274°
2026-04-30 14:36 26.07681 -80.15079 7 ft 26 kts 255°
2026-04-30 14:36 26.07616 -80.15127 7 ft 0 kts 176°
2026-04-30 14:36 26.07653 -80.09818 782 ft 110 kts 267°
2026-04-30 14:36 26.07657 -80.10661 643 ft 108 kts 268°
2026-04-30 14:37 26.07663 -80.11503 519 ft 112 kts 269°
2026-04-30 14:37 26.07666 -80.12408 384 ft 122 kts 270°
2026-04-30 14:37 26.07681 -80.13371 181 ft 122 kts 270°
2026-04-30 14:37 26.07684 -80.14239 35 ft 102 kts 270°
2026-04-30 14:38 26.07686 -80.14872 14 ft 43 kts 271°
2026-04-30 14:38 26.07654 -80.10039 748 ft 110 kts 269°
2026-04-30 14:38 26.07658 -80.10880 601 ft 107 kts 268°
2026-04-30 14:38 26.07663 -80.11736 479 ft 115 kts 269°
2026-04-30 14:39 26.07669 -80.12658 314 ft 125 kts 270°
2026-04-30 14:39 26.07682 -80.13617 108 ft 120 kts 270°
2026-04-30 14:39 26.07685 -80.14448 19 ft 94 kts 271°
2026-04-30 14:40 26.07631 -80.15127 7 ft 14 kts 178°
2026-04-30 14:40 26.07616 -80.15127 7 ft 0 kts 176°
2026-04-30 14:40 26.07585 -80.15113 8 ft 9 kts 137°
2026-04-30 14:41 26.07565 -80.15044 9 ft 10 kts 88°
2026-04-30 14:41 26.07565 -80.14965 11 ft 11 kts 90°
2026-04-30 14:41 26.07561 -80.14881 12 ft 11 kts 95°
2026-04-30 14:41 26.07553 -80.14798 13 ft 11 kts 98°
2026-04-30 14:42 26.07554 -80.14717 15 ft 11 kts 74°
2026-04-30 14:42 26.07562 -80.14637 15 ft 11 kts 91°
2026-04-30 14:42 26.07559 -80.14553 16 ft 12 kts 92°
2026-04-30 14:42 26.07556 -80.14455 16 ft 13 kts 90°
2026-04-30 14:43 26.07559 -80.14365 16 ft 10 kts 88°
2026-04-30 14:43 26.07561 -80.14290 16 ft 9 kts 87°
2026-04-30 14:43 26.07560 -80.14224 15 ft 8 kts 95°
2026-04-30 14:43 26.07556 -80.14162 14 ft 8 kts 91°
2026-04-30 14:44 26.07556 -80.14101 13 ft 8 kts 89°
2026-04-30 14:44 26.07557 -80.14040 12 ft 8 kts 89°
2026-04-30 14:44 26.07557 -80.13979 11 ft 8 kts 93°
2026-04-30 14:44 26.07543 -80.13916 10 ft 9 kts 117°
2026-04-30 14:45 26.07522 -80.13854 9 ft 9 kts 95°
2026-04-30 14:45 26.07517 -80.13787 9 ft 9 kts 91°
2026-04-30 14:45 26.07502 -80.13734 9 ft 6 kts 150°
2026-04-30 14:45 26.07475 -80.13730 10 ft 2 kts 182°
2026-04-30 14:46 26.07457 -80.13732 10 ft 3 kts 195°
2026-04-30 14:46 26.07437 -80.13746 11 ft 5 kts 221°
2026-04-30 14:46 26.07417 -80.13785 11 ft 5 kts 243°
2026-04-30 14:46 26.07413 -80.13793 11 ft 0 kts 243°